Regional Weather Roundup
Issued by NWS Northern Indiana

Home | Current Version | Previous Version | Graphics & Text | Print | Product List | Glossary On
Versions: 1 2 3 4 5 6 7 8 9 10 11 12 13 14 15 16 17 18 19 20 21 22 23 24 25 26 27 28 29 30 31 32 33 34 35 36 37 38 39 40 41 42 43 44 45 46 47 48 49 50
000
ASUS43 KIWX 221000
RWRIWX

KIWX WEATHER ROUNDUP
NATIONAL WEATHER SERVICE NORTHERN INDIANA
500 AM EST SAT NOV 22 2014

NOTE: "FAIR" INDICATES FEW OR NO CLOUDS BELOW 12,000 FEET WITH NO
SIGNIFICANT WEATHER AND/OR OBSTRUCTIONS TO VISIBILITY.

* THESE STATIONS ARE NOT UNDER NWS QUALITY CONTROL. THEY ALSO MAY NOT
  REPORT WEATHER SUCH AS PRECIPITATION OR FOG.

INZ001>027-221100-
NORTHERN INDIANA

CITY           SKY/WX    TMP DP  RH WIND       PRES   REMARKS
SOUTH BEND     CLOUDY    33  30  88 S14       30.14F WCI  23
GOSHEN         FRZ RAIN  33  30  88 S14       30.14F FOG     WCI  23
ANGOLA*        CLOUDY    30  21  69 S13       30.15F WCI  20
FORT WAYNE     LGT RAIN  33  29  85 S10       30.19F FOG     WCI  25
PERU/GRISSOM   MIX PCPN  35  35 100 S18       30.15F WCI  24

$$
INZ028>050-221100-
CENTRAL INDIANA

CITY           SKY/WX    TMP DP  RH WIND       PRES   REMARKS
LAFAYETTE      CLOUDY    36  31  82 S8        30.17F
KOKOMO*        CLOUDY    34  28  80 S15       30.18F WCI  24
MUNCIE*        LGT RAIN  36  29  75 S15G22    30.21F
INDIANAPOLIS   CLOUDY    34  29  82 SE8       30.21F WCI  27

$$
MIZ043>046-050>051-056>058-064>065-071>073-077>080-221100-
SOUTHWEST LOWER MICHIGAN

CITY           SKY/WX    TMP DP  RH WIND       PRES   REMARKS
BATTLE CREEK   LGT RAIN  33  20  58 S13       30.11F WCI  24
BENTON HARBOR  CLOUDY    32  27  81 S8        30.11F WCI  25
COLDWATER*     FLURRIES  32  22  67 S8        30.14F WCI  25
HILLSDALE*     MIX PCPN  30  18  62 S8        30.15F WCI  22
HOLLAND        CLOUDY    34  22  61 S9        30.09F WCI  27
GRAND RAPIDS   CLOUDY    30  19  63 S10       30.08F WCI  21
KALAMAZOO      FRZ RAIN  32  22  66 S13       30.12F WCI  22
STURGIS*       MIX PCPN  32  27  80 S12       30.14S WCI  23
THREE RIVERS*  LGT SNOW  33  27  79 S15       30.13F WCI  23

$$
OHZ001>008-015>018-024>025-221100-
NORTHWEST OHIO

CITY           SKY/WX    TMP DP  RH WIND       PRES   REMARKS
DEFIANCE       MIX PCPN  31  20  63 S9        30.21F WCI  23
FINDLAY        CLOUDY    31  19  61 S12       30.22F WCI  22
TOLEDO EXPRESS CLOUDY    25  16  68 S5        30.21F WCI  19
TOLEDO METCALF CLOUDY    29  16  58 S9        30.23F WCI  20
LIMA           CLOUDY    34  19  54 S13       30.23F WCI  25

$$
AND FOR LAKE MICHIGAN COASTAL AND OPEN LAKE BUOY OBSERVATIONS

STATION/POSITION TEMP    WIND        PRES    VSBY  WAVE
                 AIR SEA DIR/SP/G                  HT/PER
                 (F)     (DEG/KT/KT) (MB)    (MI)  (FT/S)
CALUMET HARBOR    34     180/ 10/ 17 1018.1F
MICHIGAN CITY     33     170/ 15/ 21   N/A
SAINT JOSEPH      35     170/  8/ 16 1021.0R
SOUTH LAKE BUOY   40 43  200/ 23/ 29 1019.2F         7/ 7

$$
&&


USA.gov is the U.S. government's official web portal to all federal, state and local government web resources and services.